This demonstration page uses our WeatherBlox Daily Observations layout. Learn more.

Left ArrowRight Arrow

53.62937, 11.41316

Hourly Observations for July 28, 2022

Temp ( °F °C ) Dew Point ( °F °C ) Humidity (%) Winds ( mph kmh ) Pressure ( in mb ) Visibility ( mi km ) Precip ( " mm )
12:20 am 00:20 Mostly Clear 54 12 45 7 72 72 W 5 7 30.09 1019 30 48 N/A
12:50 am 00:50 Partly Cloudy 52 11 45 7 77 77 W 3 6 30.09 1019 30 48 N/A
1:20 am 01:20 Mostly Clear 50 10 45 7 82 82 VRB 2 4 30.09 1019 30 48 N/A
1:50 am 01:50 Mostly Clear 50 10 45 7 82 82 VRB 2 4 30.09 1019 30 48 N/A
2:20 am 02:20 Mostly Clear 46 8 43 6 87 87 Calm 30.09 1019 30 48 N/A
2:50 am 02:50 Partly Cloudy 48 9 45 7 87 87 VRB 1 2 30.09 1019 30 48 N/A
3:20 am 03:20 Mostly Clear 48 9 45 7 87 87 VRB 2 4 30.09 1019 30 48 N/A
3:50 am 03:50 Mostly Clear 46 8 43 6 87 87 VRB 2 4 30.09 1019 30 48 N/A
4:20 am 04:20 Mostly Clear 46 8 45 7 93 93 SW 3 6 30.09 1019 30 48 N/A
4:50 am 04:50 Mostly Clear 45 7 43 6 93 93 VRB 2 4 30.12 1020 30 48 N/A
5:20 am 05:20 Mostly Cloudy 45 7 43 6 93 93 VRB 2 4 30.12 1020 30 48 N/A
5:50 am 05:50 Cloudy 46 8 45 7 93 93 VRB 1 2 30.12 1020 30 48 N/A
6:20 am 06:20 Mostly Cloudy 46 8 46 8 100 100 VRB 1 2 30.12 1020 30 48 N/A
6:50 am 06:50 Mostly Cloudy 50 10 46 8 88 88 VRB 2 4 30.12 1020 30 48 N/A
7:20 am 07:20 Mostly Cloudy 52 11 48 9 88 88 VRB 2 4 30.12 1020 30 48 N/A
7:50 am 07:50 Mostly Cloudy 54 12 48 9 82 82 VRB 2 4 30.12 1020 30 48 N/A
8:20 am 08:20 Mostly Cloudy 55 13 48 9 77 77 VRB 1 2 30.12 1020 30 48 N/A
8:50 am 08:50 Mostly Sunny 59 15 50 10 72 72 VRB 1 2 30.15 1021 30 48 N/A
9:20 am 09:20 Partly Cloudy 61 16 48 9 63 63 VRB 2 4 30.12 1020 30 48 N/A
9:50 am 09:50 Mostly Sunny 63 17 48 9 59 59 VRB 2 4 30.15 1021 30 48 N/A
10:20 am 10:20 Mostly Cloudy 61 16 45 7 55 55 VRB 2 4 30.15 1021 30 48 N/A
10:50 am 10:50 Mostly Cloudy 61 16 46 8 59 59 WNW 3 6 30.15 1021 30 48 N/A
11:20 am 11:20 Mostly Cloudy 63 17 45 7 52 52 VRB 2 4 30.15 1021 30 48 N/A
11:50 am 11:50 Mostly Cloudy 63 17 45 7 52 52 N 6 9 30.15 1021 30 48 N/A
12:20 pm 12:20 Mostly Cloudy 63 17 43 6 49 49 NW 6 9 30.15 1021 30 48 N/A
12:50 pm 12:50 Mostly Cloudy 64 18 45 7 49 49 VRB 2 4 30.15 1021 30 48 N/A
1:20 pm 13:20 Mostly Cloudy 64 18 43 6 46 46 NE 5 7 30.15 1021 30 48 N/A
1:50 pm 13:50 Mostly Cloudy 68 20 48 9 49 49 WNW 6 9 30.15 1021 30 48 N/A
2:20 pm 14:20 Partly Cloudy 66 19 43 6 43 43 VRB 5 7 30.12 1020 30 48 N/A
2:50 pm 14:50 Partly Cloudy 66 19 45 7 46 46 VRB 3 6 30.12 1020 30 48 N/A
3:20 pm 15:20 Mostly Sunny 64 18 45 7 49 49 ENE 6 9 30.12 1020 30 48 N/A
3:50 pm 15:50 Mostly Cloudy 68 20 45 7 43 43 NW 5 7 30.12 1020 30 48 N/A
4:20 pm 16:20 Mostly Cloudy 68 20 46 8 46 46 VRB 5 7 30.12 1020 30 48 N/A
4:50 pm 16:50 Mostly Sunny 68 20 45 7 43 43 VRB 3 6 30.12 1020 7 11 N/A
5:20 pm 17:20 Mostly Sunny 68 20 45 7 43 43 VRB 2 4 30.12 1020 7 11 N/A
5:50 pm 17:50 Mostly Sunny 68 20 45 7 43 43 VRB 3 6 30.09 1019 7 11 N/A
6:20 pm 18:20 Mostly Sunny 68 20 46 8 46 46 NNE 9 15 30.09 1019 30 48 N/A
6:50 pm 18:50 Mostly Sunny 66 19 46 8 49 49 ENE 12 19 30.12 1020 7 11 N/A
7:20 pm 19:20 Mostly Sunny 66 19 46 8 49 49 ENE 8 13 30.12 1020 7 11 N/A
7:50 pm 19:50 Mostly Sunny 66 19 46 8 49 49 NE 8 13 30.12 1020 7 11 N/A
8:20 pm 20:20 Mostly Sunny 64 18 46 8 52 52 ENE 8 13 30.12 1020 7 11 N/A
8:50 pm 20:50 Mostly Sunny 63 17 48 9 59 59 NE 8 13 30.12 1020 7 11 N/A
9:20 pm 21:20 Mostly Sunny 59 15 48 9 68 68 ENE 6 9 30.12 1020 7 11 N/A
9:50 pm 21:50 Mostly Clear 59 15 48 9 68 68 E 5 7 30.12 1020 7 11 N/A
10:20 pm 22:20 Mostly Clear 57 14 48 9 72 72 ENE 5 7 30.12 1020 30 48 N/A
10:50 pm 22:50 Mostly Clear 55 13 48 9 77 77 ENE 3 6 30.12 1020 30 48 N/A
11:20 pm 23:20 Mostly Clear 55 13 48 9 77 77 E 5 7 30.12 1020 30 48 N/A
11:50 pm 23:50 Mostly Clear 54 12 48 9 82 82 ENE 2 4 30.12 1020 30 48 N/A

Powered by AerisWeather